Location: Newark
(45.9456°N, 15.4064°E)
Time: 13:38:54
(UTC+00:00)

Vanguard 3 - All Passes

Search period start: 24 January 2020 00:00
Search period end: 03 February 2020 00:00
Orbit: 507 x 3263 km, 33.4° (Epoch: 24 January)

Date Brightness Start Highest point End Pass type
(mag) Time Alt. Az. Time Alt. Az. Time Alt. Az.
24 Jan - 12:59:49 10° SE 13:02:59 11° SE 13:06:09 10° ESE daylight
24 Jan - 15:00:17 10° SSW 15:15:55 31° SSE 15:30:19 10° E daylight
24 Jan - 17:12:04 10° SW 17:30:28 48° SSE 17:44:27 10° E visible
24 Jan - 19:27:38 10° WSW 19:44:55 49° S 19:56:09 10° ESE visible
24 Jan - 21:45:06 10° W 21:57:26 31° SSW 22:05:31 10° SSE visible
25 Jan - 13:47:44 10° S 14:00:24 22° SE 14:13:09 10° E daylight
25 Jan - 15:56:39 10° SW 16:14:19 43° SSE 16:29:33 10° E visible
25 Jan - 18:10:40 10° WSW 18:29:13 52° S 18:42:25 10° ESE visible
25 Jan - 20:27:19 10° W 20:43:01 42° SSW 20:53:06 10° SE visible
25 Jan - 22:46:19 10° W 22:54:14 18° SW 23:00:12 10° S visible
26 Jan - 12:38:40 10° SSE 12:45:27 13° SE 12:52:29 10° ESE daylight
26 Jan - 14:42:25 10° SSW 14:58:20 34° SSE 15:13:46 10° E daylight
26 Jan - 16:54:24 10° WSW 17:13:04 51° S 17:28:03 10° E visible
26 Jan - 19:09:55 10° WSW 19:27:49 50° SSW 19:39:55 10° ESE visible
26 Jan - 21:27:31 10° W 21:40:29 30° SW 21:49:13 10° SSE visible
27 Jan - 13:29:39 10° S 13:42:48 25° SE 13:56:40 10° E daylight
27 Jan - 15:39:03 10° SW 15:56:47 45° SSE 16:12:59 10° E daylight
27 Jan - 17:53:02 10° WSW 18:11:55 54° S 18:26:03 10° ESE visible
27 Jan - 20:09:37 10° W 20:25:56 41° SSW 20:36:50 10° SE visible
27 Jan - 22:29:07 10° W 22:37:16 17° SW 22:43:33 10° SSW visible
28 Jan - 12:19:31 10° SSE 12:27:53 15° SE 12:36:55 10° ESE daylight
28 Jan - 14:24:48 10° SSW 14:40:42 37° SSE 14:57:02 10° E daylight
28 Jan - 16:36:53 10° WSW 16:55:36 53° S 17:11:30 10° ESE visible
28 Jan - 18:52:16 10° W 19:10:34 50° SSW 19:23:35 10° SE visible
28 Jan - 21:09:57 10° W 21:23:24 29° SW 21:32:47 10° SSE visible
29 Jan - 13:11:55 10° S 13:25:10 28° SE 13:39:54 10° E daylight
29 Jan - 15:21:39 10° SW 15:39:11 48° SSE 15:56:14 10° E daylight
29 Jan - 17:35:32 10° WSW 17:54:31 54° S 18:09:34 10° ESE visible
29 Jan - 19:51:59 10° W 20:08:44 41° SSW 20:20:26 10° SE visible
29 Jan - 22:11:59 10° W 22:20:10 16° SW 22:26:40 10° SSW visible
30 Jan - 12:01:10 10° SSE 12:10:19 17° SE 12:20:39 10° E daylight
30 Jan - 14:07:27 10° SSW 14:23:04 40° SSE 14:40:06 10° E daylight
30 Jan - 16:19:33 10° WSW 16:38:04 54° S 16:54:50 10° ESE visible
30 Jan - 18:34:44 10° W 18:53:13 49° SSW 19:07:07 10° SE visible
30 Jan - 20:52:27 10° W 21:06:11 28° SW 21:16:10 10° SSE visible
31 Jan - 12:54:30 10° SSW 13:07:33 30° SE 13:22:54 10° E daylight
31 Jan - 15:04:27 10° SW 15:21:34 50° SSE 15:39:20 10° E daylight
31 Jan - 17:18:10 10° WSW 17:37:02 55° S 17:52:57 10° ESE visible
31 Jan - 19:34:27 10° W 19:51:23 39° SSW 20:03:52 10° SSE visible
31 Jan - 21:55:01 10° W 22:02:57 15° SW 22:09:30 10° SSW visible
01 Feb - 11:43:21 10° S 11:52:48 19° SE 12:03:57 10° E daylight
01 Feb - 13:50:20 10° SW 14:05:27 42° SSE 14:23:02 10° E daylight
01 Feb - 16:02:22 10° WSW 16:20:29 55° S 16:38:01 10° ESE visible
01 Feb - 18:17:19 10° W 18:35:46 49° SSW 18:50:29 10° SE visible
01 Feb - 20:35:02 10° W 20:48:51 27° SW 20:59:23 10° S visible
02 Feb - 12:37:21 10° SSW 12:49:59 32° SE 13:05:44 10° E daylight
02 Feb - 14:47:26 10° SW 15:03:58 51° SSE 15:22:18 10° E daylight
02 Feb - 17:00:57 10° WSW 17:19:30 54° S 17:36:11 10° ESE visible
02 Feb - 19:17:01 10° W 19:33:56 38° SSW 19:47:08 10° SSE visible
02 Feb - 21:38:18 10° WSW 21:45:38 14° SW 21:51:56 10° SSW visible
